Regional Weather Roundup
Issued by NWS Wakefield, VA

Home | Current Version | Previous Version | Text Only | Print | Product List | Glossary On
Versions: 1 2 3 4 5 6 7 8 9 10 11 12 13 14 15 16 17 18 19 20 21 22 23 24 25 26 27
000
ASUS41 KAKQ 261115
RWRAKQ

REGIONAL WEATHER ROUNDUP
NATIONAL WEATHER SERVICE WAKEFIELD VA
700 AM EDT MON JUN 26 2017

Note: "fair" indicates few or no clouds below 12,000 feet with no
significant weather and/or obstructions to visibility. * = Denotes
station may not report precipitation (e.g., rain,snow,etc.),
thunder or fog.

VAZ042-051-052>054-056-261200-
NORTHERN VIRGINIA

CITY           SKY/WX    TMP DP  RH WIND       PRES   REMARKS
WASH NATIONAL  MOSUNNY   69  51  52 N8        30.09R
DULLES         PTSUNNY   64  51  62 W3        30.09R
FORT BELVOIR   SUNNY     57  53  85 CALM      30.08R
QUANTICO       MOSUNNY   64  54  69 NW6       30.10R
FREDERICKSBRG* SUNNY     60  54  83 CALM      30.09R
STAFFORD*      SUNNY     55  55  98 CALM      30.13S
WARRENTON      MOSUNNY   58  53  81 CALM      30.10R
CULPEPER*      MOSUNNY   57  55  91 CALM      30.11S
MANASSAS*      SUNNY     55  54  94 CALM      30.10R
LEESBURG*      MOSUNNY  N/A N/A N/A W5        30.10S
WINCHESTER     SUNNY     59  50  72 SW3       30.10S
FRONT ROYAL*   SUNNY     59  50  72 S7        30.10S
LURAY*         SUNNY     54  52  94 CALM      30.12S
$$

VAZ048-049-060>072-079>083-261200-
CENTRAL AND SOUTH CENTRAL VIRGINIA

CITY           SKY/WX    TMP DP  RH WIND       PRES   REMARKS
RICHMOND       MOSUNNY   62  60  93 CALM      30.09R
CHESTERFIELD*  FAIR      61  57  87 CALM      30.10
PETERSBURG*    SUNNY     57  57  99 CALM      30.10S
HANOVER        SUNNY     59  55  87 CALM      30.10S
TAPPAHANNOCK*  SUNNY     61  61 100 CALM      30.10R
QUINTON*       FAIR      60  60 100 CALM      30.09R
CHARLOTTSVILLE SUNNY     61  53  75 CALM      30.11S
GORDONSVILLE*  SUNNY     65  50  57 NW5       30.10S
ORANGE*        SUNNY     61  52  72 CALM      30.10S
LOUISA*        SUNNY     57  55  94 CALM      30.09S
BUMPASS*       FAIR      56  55  98 CALM      30.10R
FARMVILLE*     SUNNY     58  54  86 CALM      30.10R
CREWE*         FAIR      55  51  87 CALM      30.10R
FORT PICKETT*  FAIR      59  56  88 CALM      30.10S
CHASE CITY*    FAIR      57  56  99 CALM      30.12R
CLARKSVILLE*   FAIR      61  54  77 NW3       30.11R
SOUTH HILL*    SUNNY     60  55  81 CALM      30.15S
LAWRENCEVILLE* FAIR      59  56  91 CALM      30.10R
EMPORIA*       SUNNY     59  55  88 CALM      30.10S
$$

VAZ088>098-261200-
SOUTHEAST VIRGINIA

CITY           SKY/WX    TMP DP  RH WIND       PRES   REMARKS
NORFOLK        SUNNY     74  64  71 NW3       30.07R
VIRGINIA BEACH MOSUNNY   69  64  84 CALM      30.06R
NORFOLK NAVAL  MOSUNNY   73  62  68 N6        30.09R
WEST POINT*    SUNNY     62  61  97 CALM      30.10S
SALUDA*        FAIR      63  60  89 CALM      30.08R
NEWPORT NEWS   SUNNY     66  60  81 CALM      30.08R
LANGLEY AFB    SUNNY     67  62  83 CALM      30.07R
FORT EUSTIS    SUNNY     70  57  62 NW6       30.06R
WILLIAMSBURG*  SUNNY     64  61  88 CALM      30.09S
HR EXEC AP*    FAIR      61  59  94 CALM      30.06F
FRANKLIN*      NOT AVBL
US460-WAKEFLD  SUNNY     61  59  93 CALM      30.09R
$$

VAZ020-022-025-037-045-261200-
WEST CENTRAL AND SOUTHWEST VIRGINIA

CITY           SKY/WX    TMP DP  RH WIND       PRES   REMARKS
STAUNTON*      SUNNY     52  50  92 CALM      30.16S
WAYNESBORO*    SUNNY     54  51  90 CALM      30.15R
HOT SPRINGS VA SUNNY     52  39  62 CALM      30.22S
LYNCHBURG      SUNNY     55  53  93 CALM      30.13S
DANVILLE       CLEAR     56  56 100 SW3       30.13R
SOUTH BOSTON*  FAIR      55  54  95 CALM      30.12S
MARTINSVILLE   CLEAR     51  51  98 CALM      30.17F
ROANOKE        CLEAR     58  50  75 W5        30.16F
BLACKSBURG     CLEAR     53  50  90 CALM      30.21F
DUBLIN*        CLEAR     53  46  76 CALM      30.20S
MARION*        CLEAR     51  48  89 W5        30.24R
HILLSVILLE*    CLEAR     52  44  73 CALM      30.20S
RICHLANDS*     FAIR      55  48  77 S3        30.22S
WISE*          CLEAR     54  45  71 CALM      30.22S
ABINGDON*      CLEAR     54  52  92 CALM      30.22R
$$

MDZ021>025-VAZ099-100-261200-
SOUTHERN MARYLAND AND THE DELMARVA PENINSULA

CITY           SKY/WX    TMP DP  RH WIND       PRES   REMARKS
PATUXENT RIVER MOSUNNY   69  54  58 NW8       30.07R
BAY BRIDGE APT SUNNY     70  55  60 NW8       30.06S
LEONARDTOWN    SUNNY     64  52  63 W3        30.09S
DOVER          SUNNY     67  58  73 NW5       30.04R
GEORGETOWN     NOT AVBL
EASTON         SUNNY     70  55  60 CALM      30.10R
CAMBRIDGE      SUNNY     70  55  60 NW8       30.07R
SALISBURY      SUNNY     62  60  93 CALM      30.06R
OCEAN CITY     MOSUNNY   65  59  81 CALM      30.06R
WALLOPS ISLAND MOSUNNY   69  60  73 CALM      30.07R
ACCOMACK*      SUNNY     65  59  83 CALM      30.07R
$$

NCZ012>017-030>032-261200-
NORTH CENTRAL AND EASTERN NORTH CAROLINA

CITY           SKY/WX    TMP DP  RH WIND       PRES   REMARKS
ROANOKE RAPIDS FAIR      59  59 100 CALM      30.10R
RALEIGH        MOSUNNY   62  59  90 CALM      30.12R
ELIZABETH CITY MOSUNNY   68  64  87 NW9       30.08R
AHOSKIE*         N/A     60  59  96 CALM      30.10R
EDENTON*       MOSUNNY   68  63  83 CALM      30.09R
CURRITUCK*     MOSUNNY   66  64  94 CALM      30.08R
KILL DEVIL HLS MOSUNNY   72  62  72 N5        30.06R
MANTEO         MOSUNNY   73  64  71 N5        30.07R
CAPE HATTERAS  CLOUDY    77  61  57 VRB6      30.06R
TARBORO*       NOT AVBL
GOLDSBORO      MOSUNNY   69  62  80 CALM      30.08R
WASHINGTON       N/A    N/A N/A N/A CALM      30.09R
GREENVILLE     CLOUDY    64  61  88 CALM      30.11R
NEW BERN       MOSUNNY   71  62  73 N6        30.09R
WILMINGTON     CLOUDY    73  70  90 CALM      30.08R
$$

VAZ048-261200-
ELSEWHERE

CITY           SKY/WX    TMP DP  RH WIND       PRES   REMARKS
HARRISBURG PA  SUNNY     65  54  67 NW6       30.06
BALTIMORE      MOSUNNY   63  55  75 W5        30.07R
ANNAPOLIS      SUNNY     65  54  67 W8        30.07R
ANDREWS AFB    SUNNY     68  51  53 W5        30.08R
PHILADELPHIA   MOSUNNY   68  49  50 NW6       30.05R
HENDERSON NC   SUNNY     62  49  62 NW3       30.11R
GREENSBORO     PTCLDY    63  52  67 NW5       30.13R
ROCKY MOUNT    PTSUNNY   62  62 100 CALM      30.10R
$$

VAZ100-261200-
MARINE

STATION/POSITION TIME  TEMP    WIND        PRES    WAVE   SWELL
                       AIR SEA DIR/SP/G            HT/PER HT/PER
                 (UTC) (F)     (DEG/KT/KT) (MB)    (FT/S) (FT/S)
BRANDYWINE LGT   1048          360/ 17/ 18   N/A
CAPE MAY NJ      1048   73 68  300/  1/  4 1017.1R
LEWES DE         1048   72 68  330/ 12/ 17 1017.4R
15NM E FENWICK I 1050   70 67  320/  6/  8 1017.9R   2/ 7   2/ 7
OCEAN-CITY-INLET 1048   70 70  340/  3/  4 1017.8R
WACHAPREAGUE VA  1048   70 81   CALM  /  1 1017.9R
THOMAS POINT MD  1100   68 78  300/ 10/ 12   N/A
GOOSES REEF MD   1100   72 78  350/ 16/ 17 1019.0    2/ 3
COVE POINT MD    1048   72     340/ 16/ 19 1018.8R
SOLOMONS ISLAND  1048          330/  9/ 13   N/A
BISHOPS HEAD MD  1048   73 79  320/  9/ 13 1018.2R
PINEY POINT MD   1042          360/ 10/ 12   N/A
POTOMAC MD       1100   73 78  330/ 12/ 16 1017.6    1/ 3
CAMBRIDGE MD     1042   74 81              1018.7R
LEWISETTA VA     1048   70 78  310/  3/  4 1018.3R
RAPPAHANNOCK LGT 1042          330/ 13/ 15 1018.6R
STINGRAY PT      1050   74     350/ 10/ 12 1018.1R
YORK RVR RNG VA  1048   72     330/  6/  8 1018.7R
YORKTOWN VA      1048   69 78  250/  4/  5 1018.1R
JAMESTOWN VA     1050   72     310/  8/ 10   N/A
DOMINION TERM VA 1048   74     340/  4/  7 1018.5R
KIPTOPEKE VA     1042      74   10/  4/  6   N/A
CHES BAY BRIDGE  1048   76 76  360/ 10/ 11 1018.2R
CAPE HENRY VA    1048   75     330/ 12/ 13   N/A
WILLOUBY STN VA  1048   72     330/  6/  7 1018.3R
S CRANEY ISL VA  1048   74     330/  4/  6 1018.2R
CAPE HENRY BUOY  1030      71                N/A     2/ 9
1ST LANDING BUOY 1100   77 76              1018.4    1/ 2
CAPE CHARLES BUO 1051      64                N/A     1/ 8
64NM E OF VA BCH 1050   75 74   10/ 12/ 14 1017.7R   2/ 6   2/ 6
DUCK PIER NC     1048   72 71  330/  9/ 11 1017.6R
44100 DUCK FRF   1005      71                N/A     2/ 9
OREGON INLET NC  1048          350/  5/  7   N/A
HATTERAS NC      1048   78 77  350/ 12/ 14 1017.7R
DIAMOND SHLS NC  1050   79 79  350/ 12/ 14 1017.6R   2/ 8   2/ 8
CAPE LOOKOUT NC  1000   76     360/ 10/ 12 1017.4R
$$




USA.gov is the U.S. government's official web portal to all federal, state and local government web resources and services.